�N����,����,�~����,�C��,���x,�C��,����,���ϕ���,�ő�u�ԕ���,�ő厞����,���˗�,�I�_���x,�n�����x,�ő啗���N��,DTYPE
"18/07/13","00:10",0.0,24.7,84.8,1006.4,318.4,0.8,1.3,322.2,0.00,22.0,25.6,"00:02:32",1
"18/07/13","00:20",0.0,24.5,85.3,1006.4,309.2,0.3,0.9,331.8,0.00,21.9,25.2,"00:17:04",1
"18/07/13","00:30",0.0,24.5,85.9,1006.2,273.3,0.6,0.9,308.4,0.00,22.0,25.4,"00:20:08",1
"18/07/13","00:40",0.0,24.4,85.8,1006.0,279.3,0.6,0.9,278.3,0.00,21.9,25.3,"00:36:24",1
"18/07/13","00:50",0.0,24.4,86.1,1006.2,306.3,0.7,1.3,309.6,0.00,22.0,25.2,"00:48:08",1
"18/07/13","01:00",0.0,24.2,86.4,1006.2,307.3,0.7,1.2,304.8,0.00,21.8,25.3,"00:51:12",1
"18/07/13","01:10",0.0,24.3,86.7,1006.2,328.5,0.8,2.0,342.8,0.00,22.0,25.3,"01:06:32",1
"18/07/13","01:20",0.0,24.4,86.3,1006.2,328.1,1.1,2.4,315.9,0.00,22.0,25.2,"01:16:08",1
"18/07/13","01:30",0.0,24.6,85.0,1006.0,329.7,1.1,2.0,319.2,0.00,22.0,25.3,"01:20:16",1
"18/07/13","01:40",0.0,24.5,84.4,1006.0,323.4,1.1,2.1,344.8,0.00,21.7,25.2,"01:38:56",1
"18/07/13","01:50",0.0,24.7,83.9,1006.0,336.4,1.7,2.8,340.0,0.00,21.8,25.3,"01:49:04",1
"18/07/13","02:00",0.0,24.9,83.3,1006.2,332.5,1.5,2.8,339.3,0.00,21.9,25.0,"01:59:52",1
"18/07/13","02:10",0.0,24.9,83.0,1006.2,338.9,1.3,2.9,340.1,0.00,21.9,25.0,"02:01:28",1
"18/07/13","02:20",0.0,25.0,83.2,1006.2,342.3,1.5,2.6,345.8,0.00,22.0,25.0,"02:17:20",1
"18/07/13","02:30",0.0,24.9,82.7,1005.7,338.0,1.1,2.2,332.9,0.00,21.8,24.9,"02:22:56",1
"18/07/13","02:40",0.0,24.7,82.9,1005.7,337.0,0.7,1.8,337.7,0.00,21.6,25.1,"02:39:52",1
"18/07/13","02:50",0.0,24.7,82.9,1005.7,334.8,1.5,2.5,337.7,0.00,21.6,25.0,"02:45:12",1
"18/07/13","03:00",0.0,24.6,83.1,1006.2,331.3,1.5,2.5,343.6,0.00,21.6,24.8,"02:59:28",1
"18/07/13","03:10",0.0,24.6,83.1,1006.0,332.2,1.2,2.4,334.6,0.00,21.6,24.9,"03:08:00",1
"18/07/13","03:20",0.0,24.4,83.9,1006.2,329.2,1.3,2.6,331.0,0.00,21.5,24.8,"03:10:40",1
"18/07/13","03:30",0.0,24.2,84.4,1006.0,301.3,0.6,1.1,331.0,0.00,21.4,24.9,"03:29:12",1
"18/07/13","03:40",0.0,24.1,85.0,1005.7,312.1,0.7,1.4,337.7,0.00,21.5,24.9,"03:34:32",1
"18/07/13","03:50",0.0,24.0,85.4,1005.7,313.6,0.8,1.6,333.3,0.00,21.4,25.0,"03:49:04",1
"18/07/13","04:00",0.0,23.9,86.0,1006.0,330.8,0.8,1.2,352.1,0.00,21.5,24.8,"03:53:46",1
"18/07/13","04:10",0.0,23.9,86.4,1006.0,305.0,0.6,1.1,343.8,0.00,21.5,24.7,"04:01:12",1
"18/07/13","04:20",0.0,23.7,87.0,1005.7,313.0,1.0,1.9,324.1,0.00,21.4,24.8,"04:14:48",1
"18/07/13","04:30",0.0,23.5,87.6,1005.7,295.7,0.7,1.2,339.6,0.00,21.4,24.7,"04:20:08",1
"18/07/13","04:40",0.0,23.3,88.2,1005.7,300.6,0.6,1.3,316.4,0.00,21.3,24.6,"04:38:48",1
"18/07/13","04:50",0.0,23.2,89.1,1006.0,308.9,0.8,1.2,310.4,0.00,21.3,24.7,"04:48:24",1
"18/07/13","05:00",0.0,23.4,89.6,1006.0,324.2,0.8,1.2,338.0,0.00,21.6,24.8,"04:52:16",1
"18/07/13","05:10",0.0,23.5,89.5,1005.7,316.8,1.2,1.8,331.4,0.00,21.7,24.6,"05:09:52",1
"18/07/13","05:20",0.0,23.7,89.3,1005.7,298.2,1.1,1.8,313.5,0.00,21.9,24.7,"05:10:32",1
"18/07/13","05:30",0.0,23.8,89.3,1006.0,317.5,1.5,2.2,313.9,0.00,22.0,24.7,"05:23:36",1
"18/07/13","05:40",0.0,23.9,89.1,1006.0,322.5,1.3,2.2,333.5,0.00,22.0,24.6,"05:33:28",1
"18/07/13","05:50",0.0,24.0,89.1,1006.0,332.1,1.2,2.0,344.8,0.00,22.1,24.7,"05:44:08",1
"18/07/13","06:00",0.0,24.2,89.1,1006.2,321.8,0.8,1.6,311.9,0.01,22.3,24.8,"05:50:56",1
"18/07/13","06:10",0.0,24.4,89.2,1006.2,323.9,0.8,1.8,324.0,0.02,22.5,24.6,"06:06:40",1
"18/07/13","06:20",0.0,24.6,88.9,1006.0,337.0,1.3,2.8,325.1,0.03,22.7,24.5,"06:11:44",1
"18/07/13","06:30",0.0,24.8,88.0,1006.0,337.3,1.8,3.2,331.6,0.03,22.7,24.6,"06:23:28",1
"18/07/13","06:40",0.0,24.9,87.4,1005.7,333.3,1.5,2.2,338.7,0.03,22.7,24.7,"06:32:32",1
"18/07/13","06:50",0.0,24.9,86.8,1006.0,341.2,1.2,2.2,337.0,0.03,22.6,24.8,"06:41:52",1
"18/07/13","07:00",0.0,25.5,85.8,1006.2,348.3,1.1,1.9,346.4,0.08,23.0,24.6,"06:51:04",1
"18/07/13","07:10",0.0,26.4,81.9,1005.7,354.9,1.2,2.2,345.4,0.10,23.1,24.7,"07:01:28",1
"18/07/13","07:20",0.0,26.7,80.3,1006.0,13.8,0.8,1.8,358.1,0.09,23.1,24.6,"07:10:24",1
"18/07/13","07:30",0.0,27.4,79.1,1006.0,44.2,0.5,1.2,60.9,0.14,23.5,24.7,"07:22:24",1
"18/07/13","07:40",0.0,28.1,78.2,1005.2,96.8,0.2,1.1,37.9,0.17,24.0,24.7,"07:30:08",1
"18/07/13","07:50",0.0,28.1,76.7,1005.0,100.5,0.6,1.6,67.6,0.18,23.7,24.7,"07:44:08",1
"18/07/13","08:00",0.0,28.2,76.2,1005.2,109.7,0.6,1.6,121.5,0.20,23.6,24.8,"07:59:52",1
"18/07/13","08:10",0.0,28.3,77.7,1005.7,135.8,0.7,1.9,117.6,0.20,24.1,25.0,"08:00:48",1
"18/07/13","08:20",0.0,28.2,75.0,1006.4,170.9,0.6,1.4,201.7,0.22,23.4,24.9,"08:12:00",1
"18/07/13","08:30",0.0,29.5,73.9,1006.7,85.2,0.5,1.4,83.9,0.30,24.4,25.0,"08:29:20",1
"18/07/13","08:40",0.0,28.9,72.7,1006.9,60.1,0.7,1.9,43.7,0.25,23.5,25.1,"08:32:56",1
"18/07/13","08:50",0.0,29.2,73.7,1006.9,112.3,0.2,1.1,114.7,0.19,24.1,25.1,"08:46:00",1
"18/07/13","09:00",0.0,29.0,73.1,1006.7,30.5,0.8,1.6,17.6,0.24,23.7,25.3,"08:51:36",1
"18/07/13","09:10",0.0,29.2,74.5,1006.4,58.4,0.7,1.7,12.6,0.21,24.2,25.5,"09:09:12",1
"18/07/13","09:20",0.0,29.8,75.5,1006.4,44.2,0.3,1.1,115.5,0.26,25.0,25.2,"09:14:40",1
"18/07/13","09:30",0.0,29.6,74.5,1006.9,191.6,0.7,2.7,201.1,0.34,24.6,25.6,"09:27:52",1
"18/07/13","09:40",0.0,29.9,71.7,1006.7,247.6,0.7,1.9,353.1,0.36,24.3,25.7,"09:39:52",1
"18/07/13","09:50",0.0,30.8,71.8,1007.1,356.2,0.8,2.7,348.4,0.43,25.2,25.7,"09:40:32",1
"18/07/13","10:00",0.0,30.7,70.6,1007.6,318.2,0.7,2.0,349.2,0.47,24.8,26.1,"09:53:44",1
"18/07/13","10:10",0.0,31.0,67.4,1007.6,351.3,0.7,3.1,325.5,0.47,24.3,26.0,"10:02:16",1
"18/07/13","10:20",0.0,30.9,67.8,1007.6,189.0,0.7,2.2,202.8,0.30,24.3,26.1,"10:12:16",1
"18/07/13","10:30",0.0,31.2,68.0,1007.6,205.8,1.0,2.8,212.7,0.41,24.6,26.2,"10:27:44",1
"18/07/13","10:40",0.0,31.7,67.9,1007.4,227.3,1.0,2.4,221.8,0.41,25.1,26.5,"10:36:08",1
"18/07/13","10:50",0.0,31.8,67.8,1007.4,246.7,1.0,2.9,229.9,0.48,25.2,26.5,"10:49:12",1
"18/07/13","11:00",0.0,32.1,68.0,1007.4,258.4,1.1,2.4,214.1,0.56,25.5,26.7,"10:52:40",1
"18/07/13","11:10",0.0,32.2,66.9,1007.6,265.6,1.0,2.6,210.1,0.57,25.3,26.9,"11:05:36",1
"18/07/13","11:20",0.0,31.5,65.2,1007.4,286.3,0.7,1.4,350.1,0.32,24.2,27.0,"11:13:28",1
"18/07/13","11:30",0.0,32.2,63.4,1007.6,269.8,1.0,2.6,339.3,0.46,24.4,27.1,"11:29:20",1
"18/07/13","11:40",0.0,32.0,62.6,1007.1,293.8,0.6,2.1,307.1,0.36,24.0,27.4,"11:30:40",1
"18/07/13","11:50",0.0,32.1,63.6,1006.9,237.4,1.2,2.9,230.5,0.42,24.4,27.4,"11:46:24",1
"18/07/13","12:00",0.0,32.4,63.0,1006.9,288.9,0.7,2.0,211.1,0.37,24.5,27.6,"11:51:20",1
"18/07/13","12:10",0.0,32.8,61.4,1006.9,298.0,0.8,2.7,325.5,0.50,24.4,27.7,"12:07:20",1
"18/07/13","12:20",0.0,32.3,61.2,1006.7,289.9,0.7,1.7,331.1,0.23,23.9,27.7,"12:10:08",1
"18/07/13","12:30",0.0,32.4,61.3,1006.7,264.4,1.0,3.1,320.6,0.35,24.0,27.9,"12:23:28",1
"18/07/13","12:40",0.0,32.8,58.9,1006.4,232.3,0.8,2.7,219.9,0.36,23.7,28.0,"12:36:56",1
"18/07/13","12:50",0.0,32.4,60.9,1006.0,221.8,1.0,2.7,218.2,0.28,23.9,28.0,"12:48:48",1
"18/07/13","13:00",0.0,32.5,61.6,1006.2,224.8,1.0,2.8,216.4,0.23,24.2,28.0,"12:59:20",1
"18/07/13","13:10",0.0,33.1,58.4,1005.7,241.7,0.8,2.4,217.5,0.38,23.9,28.1,"13:00:16",1
"18/07/13","13:20",0.0,32.8,60.6,1005.7,237.1,1.0,2.5,353.3,0.29,24.2,28.3,"13:10:08",1
"18/07/13","13:30",0.0,32.7,60.9,1006.0,319.7,1.1,3.3,314.2,0.28,24.2,28.2,"13:28:56",1
"18/07/13","13:40",0.0,33.2,59.2,1005.5,278.5,1.0,2.4,318.0,0.45,24.2,28.4,"13:34:00",1
"18/07/13","13:50",0.0,33.4,56.8,1005.7,307.0,1.0,2.9,352.7,0.43,23.7,28.1,"13:47:36",1
"18/07/13","14:00",0.0,33.4,58.9,1006.0,297.6,1.0,2.8,350.2,0.33,24.3,28.0,"13:54:56",1
"18/07/13","14:10",0.0,33.0,60.4,1006.0,301.7,1.2,5.2,228.1,0.25,24.3,28.4,"14:05:28",1
"18/07/13","14:20",0.0,32.8,59.7,1005.7,341.0,1.1,2.9,344.7,0.26,24.0,28.5,"14:10:24",1
"18/07/13","14:30",0.0,32.7,58.7,1005.2,9.1,1.2,2.5,339.0,0.21,23.6,28.2,"14:20:08",1
"18/07/13","14:40",0.0,32.9,57.3,1005.2,3.9,1.3,2.7,356.7,0.23,23.4,28.3,"14:38:48",1
"18/07/13","14:50",0.0,33.3,58.2,1005.0,10.7,1.3,4.1,345.3,0.31,24.0,28.5,"14:41:04",1
"18/07/13","15:00",0.0,33.0,55.6,1005.2,13.3,1.3,3.1,337.9,0.29,23.0,28.4,"14:53:36",1
"18/07/13","15:10",0.0,32.6,58.3,1004.8,359.5,1.3,2.6,337.2,0.24,23.4,28.4,"15:00:24",1
"18/07/13","15:20",0.0,32.2,59.7,1004.8,352.4,1.7,4.1,15.5,0.21,23.4,28.4,"15:19:04",1
"18/07/13","15:30",0.0,31.7,62.6,1004.3,356.5,1.5,3.2,0.4,0.17,23.7,28.2,"15:21:28",1
"18/07/13","15:40",0.0,31.5,63.2,1004.3,354.0,1.1,2.1,3.3,0.14,23.7,28.3,"15:39:20",1
"18/07/13","15:50",0.0,31.6,63.7,1004.1,349.6,1.2,3.1,348.6,0.15,23.9,28.2,"15:47:12",1
"18/07/13","16:00",0.0,31.4,63.4,1003.8,4.1,1.0,2.6,343.8,0.12,23.7,28.2,"15:51:52",1
"18/07/13","16:10",0.0,30.9,64.5,1003.8,2.6,1.5,2.6,347.5,0.09,23.5,28.2,"16:05:44",1
"18/07/13","16:20",0.0,30.4,67.5,1003.4,349.9,1.2,3.9,347.6,0.07,23.7,28.2,"16:12:08",1
"18/07/13","16:30",0.0,30.3,67.4,1003.6,336.6,1.6,3.4,354.9,0.09,23.6,28.1,"16:26:24",1
"18/07/13","16:40",0.0,30.8,67.0,1003.4,341.4,1.5,3.1,352.7,0.14,24.0,28.2,"16:32:48",1
"18/07/13","16:50",0.0,31.1,63.3,1003.4,351.7,1.5,2.9,347.1,0.11,23.3,27.9,"16:45:20",1
"18/07/13","17:00",0.0,30.9,65.1,1003.4,346.2,1.3,3.3,335.6,0.10,23.6,28.0,"16:50:24",1
"18/07/13","17:10",0.0,31.4,64.7,1003.4,350.6,0.8,1.6,344.5,0.12,24.0,27.9,"17:01:44",1
"18/07/13","17:20",0.0,31.8,62.7,1003.4,353.9,0.8,2.1,358.8,0.06,23.8,27.7,"17:14:08",1
"18/07/13","17:30",0.0,32.1,60.0,1003.8,335.1,0.6,1.4,352.4,0.04,23.4,28.0,"17:24:40",1
"18/07/13","17:40",0.0,32.2,59.8,1003.8,358.1,0.6,1.8,344.5,0.03,23.4,27.9,"17:36:56",1
"18/07/13","17:50",0.0,31.8,60.1,1004.1,230.8,0.3,1.3,218.9,0.03,23.1,27.8,"17:42:24",1
"18/07/13","18:00",0.0,31.3,61.4,1003.8,297.8,0.5,1.6,348.4,0.02,23.0,27.9,"17:54:08",1
"18/07/13","18:10",0.0,31.3,64.1,1003.8,291.0,0.3,1.3,349.8,0.03,23.7,27.9,"18:09:28",1
"18/07/13","18:20",0.0,31.4,63.8,1003.6,357.8,0.7,1.7,349.0,0.03,23.8,27.7,"18:14:40",1
"18/07/13","18:30",0.0,31.3,64.4,1003.8,344.7,0.6,1.6,343.0,0.02,23.8,27.6,"18:27:04",1
"18/07/13","18:40",0.0,30.9,68.1,1003.8,2.1,0.5,1.4,341.0,0.01,24.4,27.6,"18:33:52",1
"18/07/13","18:50",0.0,30.1,70.7,1003.4,355.2,0.7,1.6,347.1,0.00,24.2,27.5,"18:45:04",1
"18/07/13","19:00",0.0,29.4,72.6,1003.4,357.0,0.7,1.3,31.5,0.00,24.0,27.6,"18:56:08",1
"18/07/13","19:10",0.0,28.7,74.5,1002.9,344.5,0.7,1.3,351.8,0.00,23.8,27.7,"19:03:20",1
"18/07/13","19:20",0.0,28.3,75.4,1002.6,339.6,1.0,2.1,347.3,0.00,23.6,27.4,"19:17:52",1
"18/07/13","19:30",0.0,28.1,76.2,1002.9,357.1,1.0,2.2,340.2,0.00,23.6,27.3,"19:21:44",1
"18/07/13","19:40",0.0,27.7,77.4,1003.1,353.9,0.7,1.4,0.4,0.00,23.4,27.4,"19:39:20",1
"18/07/13","19:50",0.0,27.4,78.1,1003.6,350.7,1.0,2.0,341.0,0.00,23.3,27.2,"19:44:56",1
"18/07/13","20:00",0.0,27.3,78.4,1003.6,343.2,1.1,1.9,339.5,0.00,23.3,27.2,"19:52:08",1
"18/07/13","20:10",0.0,27.1,78.9,1004.1,348.9,0.8,1.4,10.9,0.00,23.2,27.2,"20:04:24",1
"18/07/13","20:20",0.0,26.8,79.9,1004.3,349.3,1.0,1.4,349.7,0.00,23.1,27.0,"20:12:32",1
"18/07/13","20:30",0.0,26.7,80.4,1004.1,3.1,0.8,1.3,17.1,0.00,23.1,26.9,"20:23:52",1
"18/07/13","20:40",0.0,26.6,80.9,1004.1,354.0,1.0,1.6,356.9,0.00,23.1,26.8,"20:32:40",1
"18/07/13","20:50",0.0,26.5,81.6,1004.3,347.8,0.8,1.3,338.5,0.00,23.1,26.8,"20:46:32",1
"18/07/13","21:00",0.0,26.3,82.4,1004.1,344.3,0.7,1.3,340.2,0.00,23.1,26.7,"20:52:32",1
"18/07/13","21:10",0.0,26.3,82.6,1004.3,354.3,0.6,1.1,12.2,0.00,23.1,26.6,"21:07:44",1
"18/07/13","21:20",0.0,26.1,82.9,1004.5,339.4,0.7,1.4,356.9,0.00,23.0,26.4,"21:19:36",1
"18/07/13","21:30",0.0,25.9,83.3,1004.5,333.4,1.0,1.6,336.8,0.00,22.9,26.7,"21:24:48",1
"18/07/13","21:40",0.0,25.8,83.7,1004.5,337.2,1.1,1.8,325.2,0.00,22.9,26.4,"21:39:28",1
"18/07/13","21:50",0.0,25.6,84.9,1004.8,309.7,0.6,1.1,314.7,0.00,22.9,26.4,"21:40:08",1
"18/07/13","22:00",0.0,25.5,85.1,1005.0,294.8,0.7,1.4,312.0,0.00,22.9,26.3,"21:52:56",1
"18/07/13","22:10",0.0,25.4,85.2,1004.8,253.3,0.3,1.0,265.1,0.00,22.8,26.4,"22:00:16",1
"18/07/13","22:20",0.0,25.2,86.1,1005.0,265.8,0.5,1.2,271.1,0.00,22.7,26.2,"22:10:02",1
"18/07/13","22:30",0.0,25.4,85.8,1004.8,277.7,1.0,1.9,256.3,0.00,22.9,26.2,"22:24:08",1
"18/07/13","22:40",0.0,25.5,85.0,1004.8,300.3,1.1,1.9,315.1,0.00,22.8,26.0,"22:36:16",1
"18/07/13","22:50",0.0,25.5,84.6,1004.8,280.2,1.0,1.9,263.6,0.00,22.8,26.1,"22:47:20",1
"18/07/13","23:00",0.0,25.4,85.0,1005.0,289.1,1.0,2.0,232.1,0.00,22.7,26.0,"22:51:44",1
"18/07/13","23:10",0.0,25.6,84.8,1005.0,325.9,1.6,2.5,331.3,0.00,22.9,25.9,"23:00:48",1
"18/07/13","23:20",0.0,25.7,84.8,1005.0,327.5,1.2,2.5,306.5,0.00,23.0,25.9,"23:19:36",1
"18/07/13","23:30",0.0,25.8,84.5,1004.8,330.0,1.7,4.0,346.0,0.00,23.0,26.0,"23:24:48",1
"18/07/13","23:40",0.0,25.9,84.1,1004.8,330.8,2.2,4.2,348.1,0.00,23.0,25.7,"23:31:52",1
"18/07/13","23:50",0.0,26.0,83.3,1005.0,333.9,2.2,4.8,328.3,0.00,23.0,25.8,"23:45:36",1
"18/07/13","24:00",0.0,25.6,83.7,1004.8,337.0,1.3,2.2,344.9,0.00,22.7,25.9,"23:59:12",1
